Home > Weather > Modesto > Past weeks

Flag for USA Weather for the Past 2 Weeks in Modesto, California, USA

Now
73 °F

Sunny.


Feels Like: 77 °F
Forecast: 52 / 79 °F
Wind: 8 mph from Northwest

Location: Modesto City-County-Sham Field

Current Time: Apr 29, 2016 at 12:46:17 PM

Latest Report: Apr 29, 2016 at 11:53 AM


Visibility: 10 mi

Pressure: 29.98 "Hg

Humidity: 37%

Dew Point: 45 °F

Location of ModestoLocation

Historic Weather in Modesto — Graph

°F

Modesto Temperature Yesterday

Maximum temperature yesterday: 81 °F (at 3:53 PM)
Minimum temperature yesterday: 54 °F (at 4:53 AM)
Average temperature yesterday: 66 °F

High & Low Weather Summary for the Past Weeks

 TemperatureHumidityPressure
High88 °F (Apr 18, 3:53 PM)89% (Apr 17, 6:53 AM)30.19 "Hg (Apr 17, 6:53 AM)
Low48 °F (Apr 16, 5:53 AM)13% (Apr 20, 3:53 PM)29.79 "Hg (Apr 28, 3:53 AM)
Average65 °F51%29.97 "Hg
* Reported Apr 14 11:53 AM — Apr 29 11:53 AM, Modesto, Weather by CustomWeather, © 2016

Note: Actual official high and low records may vary slightly from our data, if they occured in-between our weather recording intervals... More about our weather records

Advertising

Modesto Weather History for the Previous 24 Hours

Scroll right to see more
 ConditionsComfort  
Time TempWeatherWind HumidityBarometerVisibility
11:53 AM
Fri, Apr 29
73 °FSunny.8 mph37%29.98 "Hg10 mi
10:53 AM70 °FSunny.No wind46%30.00 "Hg10 mi
9:53 AM65 °FSunny.No wind54%30.00 "Hg10 mi
8:53 AM59 °FSunny.No wind69%30.00 "Hg10 mi
7:53 AM56 °FSunny.No wind77%29.99 "Hg10 mi
6:53 AM53 °FClear.N/A83%29.98 "Hg10 mi
5:53 AM51 °FClear.5 mph83%29.96 "Hg10 mi
4:53 AM52 °FClear.No wind80%29.96 "Hg10 mi
3:53 AM52 °FClear.5 mph80%29.95 "Hg10 mi
2:53 AM54 °FClear.No wind74%29.93 "Hg10 mi
1:53 AM58 °FClear.3 mph62%29.93 "Hg10 mi
12:53 AM59 °FClear.3 mph62%29.92 "Hg10 mi
11:53 PM
Thu, Apr 28
58 °FClear.5 mph62%29.91 "Hg10 mi
10:53 PM65 °FClear.7 mph40%29.91 "Hg10 mi
9:53 PM64 °FClear.8 mph40%29.89 "Hg10 mi
8:53 PM69 °FClear.10 mph36%29.87 "Hg10 mi
7:53 PM70 °FSunny.14 mph38%29.85 "Hg10 mi
6:53 PM76 °FSunny.15 mph33%29.84 "Hg10 mi
5:53 PM80 °FPleasantly warm.16 mph21%29.83 "Hg10 mi
4:53 PM81 °FSunny.15 mph18%29.83 "Hg10 mi
3:53 PM81 °FSunny.17 mph21%29.83 "Hg10 mi
2:53 PM80 °FSunny.15 mph24%29.84 "Hg7 mi
1:53 PM77 °FSunny.13 mph30%29.85 "Hg10 mi
12:53 PM76 °FPassing clouds.18 mph32%29.86 "Hg10 mi
Weather by CustomWeather, © 2016

See weather overviewHow to use our weather pages